Vorticity
nan nan nan nan nan nan nan nan nan nan nan nan nan nan nan nan nan nan nan nan nan nan nan nan nan nan nan nan nan nan nan nan nan nan nan nan nan nan nan nan nan nan nan nan nan nan nan nan nan
nan 1 2 7 6 4 6 7 9 9 9 7 7 6 4 7 9 9 8 8 7 6 7 8 7 5 4 4 5 7 6 5 5 5 5 6 6 5 5 6 5 6 5 5 6 6 6 6 nan
nan -0 5 10 5 5 8 8 12 11 5 2 5 6 8 6 10 5 7 10 6 6 8 11 8 5 4 4 5 5 6 5 5 5 5 6 6 6 6 6 5 5 5 5 5 6 6 6 nan
nan 5 7 7 6 8 10 7 7 2 4 11 6 3 9 10 9 11 9 6 6 6 9 11 7 4 3 4 4 4 5 5 5 5 5 5 6 6 5 5 6 4 5 5 5 5 5 5 nan
nan 6 8 6 6 8 10 9 3 5 9 6 6 6 5 10 14 10 5 6 5 6 8 9 8 5 4 4 4 4 4 5 5 5 6 6 5 6 5 5 5 5 5 5 5 5 5 5 nan
nan 7 5 7 6 7 8 7 5 7 11 6 6 7 7 12 8 3 6 7 7 6 8 10 8 4 4 4 5 4 4 5 5 5 6 7 6 6 6 5 5 5 5 5 4 5 6 5 nan
nan 7 6 7 7 8 7 6 8 8 6 5 7 6 8 8 5 7 7 6 7 6 6 7 7 10 7 4 4 4 5 5 5 7 7 7 6 6 6 6 5 5 4 5 5 5 5 5 nan
nan 6 6 9 7 9 9 9 7 4 7 11 9 5 11 11 7 6 7 6 7 6 6 6 6 6 7 10 8 5 5 5 6 6 6 7 6 6 6 7 5 5 6 4 4 4 4 3 nan
nan 6 7 8 8 9 7 4 6 9 7 6 11 16 16 11 7 7 5 3 6 7 6 7 7 7 6 7 9 9 6 7 6 5 3 1 5 7 8 8 7 6 5 4 4 4 4 4 nan
nan 8 9 8 10 9 7 6 8 7 3 5 12 16 10 6 5 6 4 3 3 6 5 6 7 7 7 6 9 9 7 8 7 6 6 5 6 6 7 9 9 7 5 6 6 6 6 5 nan
nan 7 8 9 11 9 7 7 9 6 5 16 12 5 2 4 4 5 6 7 5 4 7 7 6 7 5 6 7 6 8 7 8 7 6 6 5 5 6 7 7 8 8 7 7 8 7 7 nan
nan 8 12 12 7 7 7 7 7 7 14 17 14 5 5 5 5 5 6 6 7 6 6 7 8 7 5 6 7 7 6 7 7 8 6 6 6 7 7 7 7 6 8 7 6 6 6 7 nan
nan 8 11 13 7 7 7 5 6 8 14 11 11 6 5 4 4 5 7 7 7 8 7 7 7 4 7 5 7 8 7 7 7 7 7 6 7 7 7 8 8 6 6 7 7 7 8 8 nan
nan 10 10 8 5 7 10 4 6 10 9 7 6 4 5 6 5 5 8 7 6 7 7 8 9 6 4 6 7 7 7 8 7 7 8 7 6 7 7 7 7 8 7 7 7 7 7 7 nan
nan 6 7 5 7 8 5 5 9 11 8 5 4 6 5 5 7 6 6 7 7 7 9 10 7 7 6 6 6 7 8 8 7 8 8 7 6 6 7 7 7 8 8 8 8 8 7 8 nan
nan 7 8 8 8 5 0 9 11 12 5 5 5 6 6 7 6 7 7 8 8 8 8 7 9 8 6 5 7 7 7 7 8 9 10 9 7 7 6 7 7 8 8 8 7 7 8 8 nan
nan 10 5 10 8 5 6 10 13 9 4 5 6 7 6 7 8 9 9 9 8 7 7 8 9 9 9 7 7 8 8 7 8 8 7 8 11 9 7 7 8 8 7 7 8 7 8 7 nan
nan 7 9 9 8 9 5 11 13 8 6 5 6 6 7 8 8 8 8 9 9 9 8 8 8 9 9 8 8 8 7 8 8 8 8 7 8 9 8 7 9 9 7 7 8 7 7 7 nan
nan 7 7 9 11 11 8 11 10 5 4 6 6 6 9 8 10 11 9 9 8 8 9 9 7 8 4 5 8 9 9 8 7 10 7 7 7 8 8 7 8 8 8 8 7 8 8 9 nan
nan 6 9 8 17 14 9 10 14 10 8 6 8 8 8 8 12 13 13 10 10 8 7 8 7 8 6 6 7 9 10 9 8 10 10 8 8 8 9 6 8 8 9 10 8 6 7 11 nan
nan 8 8 9 10 11 8 9 13 9 11 8 8 10 13 14 6 6 14 14 11 11 12 10 8 8 8 7 7 8 7 8 10 8 10 12 12 10 8 10 8 9 9 8 9 9 5 6 nan
nan 11 7 10 10 10 4 11 8 15 10 5 7 11 12 12 4 4 8 9 13 11 10 11 9 7 10 9 7 6 6 6 8 7 8 14 12 13 12 11 8 6 9 10 10 9 8 8 nan
nan 8 11 11 10 8 7 12 9 13 16 12 9 10 8 6 5 7 7 4 7 14 16 16 18 11 10 11 5 7 6 6 7 10 8 8 12 14 16 12 10 9 8 10 10 9 9 6 nan
nan 8 10 12 9 4 11 9 9 8 7 11 14 13 10 6 3 0 7 13 8 13 15 10 9 13 13 13 17 10 7 9 10 11 12 10 10 9 10 14 14 12 10 9 11 12 9 7 nan
nan 8 8 6 12 8 7 10 9 6 11 16 16 12 7 5 6 10 10 7 8 10 4 5 6 9 3 1 16 19 14 13 12 11 9 9 10 7 8 12 14 15 12 11 11 10 10 10 nan
nan 7 6 10 8 11 10 6 8 8 9 15 19 12 10 7 8 9 8 9 9 6 1 2 1 7 11 7 6 18 17 12 9 9 10 9 9 8 8 9 9 10 13 15 13 10 10 11 nan
nan 9 9 6 9 11 7 6 10 9 7 12 11 10 8 8 8 8 8 7 9 7 12 10 5 5 4 9 14 12 9 10 9 8 11 8 8 8 9 9 8 8 9 10 13 13 12 12 nan
nan 7 7 10 14 6 9 11 12 8 9 7 5 8 9 11 9 9 13 10 9 9 8 12 13 11 9 4 11 9 8 8 9 8 9 10 9 8 9 9 9 9 8 9 12 11 10 12 nan
nan 5 11 15 9 12 9 9 15 13 13 7 8 10 10 8 11 15 10 10 11 10 12 10 11 8 7 7 9 9 9 9 9 8 8 9 9 8 9 9 9 8 9 11 10 9 9 10 nan
nan nan nan nan nan nan nan nan nan nan nan nan nan nan nan nan nan nan nan nan nan nan nan nan nan nan nan nan nan nan nan nan nan nan nan nan nan nan nan nan nan nan nan nan nan nan nan nan nan
CAPE
1164 919 983 1316 15 0 0 128 247 4 29 83 7 18 24 17 65 10 14 42 310 699 1118 1505 2377 2272 2261 2503 2497 2196 2192 2154 2647 2654 2490 2083 2101 2430 2285 2235 2380 2177 2180 1869 2138 2061 1927 2056 1999
1166 1034 1471 922 0 0 0 107 313 466 301 225 454 227 71 19 38 27 45 127 564 907 1098 1530 2347 2451 2306 2247 2441 2392 1948 2135 2271 2156 2228 2031 2252 2417 2497 2552 2388 2279 2107 2104 2069 2100 2240 2102 2235
1267 1824 1421 15 0 2 158 562 687 641 340 681 782 361 28 18 46 52 75 302 868 1005 1066 1616 2438 2374 2133 2297 2299 2289 2066 1994 2064 2053 2239 2261 2362 2291 2343 2238 2397 2189 1883 1778 2251 2150 2155 1848 2005
2110 1793 283 0 2 10 471 522 599 583 579 316 16 67 7 13 51 58 253 546 1041 1145 1192 2015 1937 1619 1630 2023 2194 2111 2175 2165 2116 2032 2029 2159 2240 2256 2433 1919 1755 2144 1876 2012 2171 2192 2310 1900 1871
1364 169 0 0 31 542 770 635 653 806 814 608 380 513 485 259 77 186 327 756 1168 1161 1454 1706 2256 1783 1527 1682 1980 1953 1964 2107 2129 2025 2054 2167 2102 2206 2367 1755 1230 2052 2216 2138 2095 2145 1966 1757 1682
151 0 0 0 68 524 831 657 966 974 684 417 523 557 473 64 137 216 430 897 1265 1231 1418 1427 1672 1601 1898 2112 2154 1958 1925 2021 2062 1976 2032 2441 2028 2036 2211 1731 1390 1193 1506 1890 2122 1503 1130 1241 1258
89 0 0 0 110 792 928 652 820 697 666 495 702 637 429 53 165 427 856 1324 1325 1009 1370 1125 1127 1175 1627 2295 2254 2005 1950 1831 1723 2296 2116 2010 1883 1875 1979 2006 1786 1328 963 1325 1551 1334 1579 1659 1814
136 0 0 0 44 243 794 859 723 824 652 532 545 466 376 407 377 1328 1335 1267 1153 1078 1287 1304 1404 1887 1724 1924 2254 2104 1897 1768 2176 1922 2132 1986 1815 1928 2006 2085 1901 2027 2168 1811 1582 1520 1863 1812 1571
0 0 4 71 66 473 960 784 926 764 614 842 594 605 611 830 1115 1343 1402 1245 1079 1114 1300 1423 1496 1403 1390 1542 1569 1926 1711 1682 2138 1516 1601 1281 202 373 554 1162 1599 1514 1353 1453 1427 1478 1382 1255 1296
0 8 15 18 110 936 1126 923 827 927 681 507 813 885 914 824 934 914 875 807 923 934 1227 1234 1197 1259 1237 1801 1247 1194 1273 1336 1093 501 303 10 0 6 17 360 1114 1055 995 1209 1216 1060 1080 1166 910
0 27 0 15 822 1089 1017 848 729 737 508 372 611 803 819 647 762 861 877 851 719 833 1084 1217 1040 1010 1131 1449 874 812 793 766 405 146 33 0 0 0 1 0 16 7 125 14 102 161 163 167 530
18 5 2 779 1001 1070 1142 765 665 694 375 393 653 809 762 620 584 594 732 694 579 784 793 957 949 982 960 903 850 700 513 368 405 148 36 8 0 0 0 0 0 0 0 0 0 0 0 0 48
2 6 15 421 934 1022 1138 1018 1041 638 628 525 521 629 606 604 549 483 413 513 320 475 604 584 767 866 782 862 701 244 269 292 312 134 36 1 0 0 0 0 0 0 0 0 0 0 0 18 220
0 15 49 573 916 1172 1243 1163 946 748 829 735 584 498 447 396 293 64 106 174 136 169 366 402 661 806 856 923 599 175 263 197 121 63 26 13 0 0 0 0 0 0 0 0 0 3 112 166 166
0 15 49 408 780 1104 1028 936 993 755 958 907 752 570 538 424 182 7 0 13 4 50 164 334 523 593 680 680 538 87 17 21 74 73 8 0 0 0 0 0 0 5 0 8 69 123 171 167 176
0 1 41 132 663 1063 37 386 1004 812 894 890 850 727 706 570 484 262 72 8 0 0 135 175 474 449 539 526 276 83 40 2 0 13 29 0 0 0 0 0 1 4 36 64 148 167 145 124 169
0 0 2 100 303 847 517 370 1013 870 830 797 807 749 774 662 565 500 275 199 58 27 70 104 205 281 409 409 242 45 14 0 0 0 18 23 4 1 0 0 0 11 49 128 161 270 165 173 168
0 0 0 0 109 462 565 166 1006 860 759 739 732 710 705 665 630 604 402 200 89 4 4 63 93 159 255 200 143 99 89 80 41 7 19 59 45 39 21 7 4 17 56 146 187 203 218 347 270
0 0 0 0 0 365 279 95 905 921 762 644 642 677 593 722 731 423 397 262 153 58 11 131 154 196 141 114 105 142 226 213 133 92 71 98 79 36 30 40 59 24 67 83 123 109 105 51 181
0 0 0 0 0 232 95 80 805 916 793 682 629 652 482 411 396 286 249 183 201 131 57 137 162 163 211 197 152 208 185 207 246 273 218 239 213 256 97 76 62 31 29 71 128 145 67 104 152
0 0 0 0 0 0 8 57 734 728 693 567 413 425 267 260 310 482 245 121 129 171 85 103 110 116 101 277 454 423 431 480 671 362 241 338 342 424 514 399 195 137 89 203 169 183 226 290 124
0 0 0 0 0 1 0 0 59 461 595 541 436 277 391 624 637 651 553 284 136 128 250 320 157 93 121 160 405 756 804 808 930 1071 1301 838 397 303 324 303 328 306 228 222 368 325 281 231 259
0 0 0 0 0 0 0 0 0 1 361 492 401 333 703 777 279 462 242 226 141 505 314 290 420 295 457 275 367 426 568 632 1152 1335 1413 1132 770 625 863 580 545 448 643 323 256 340 253 216 287
0 0 0 0 0 0 0 0 0 37 5 26 471 452 483 468 417 25 0 72 321 377 316 119 343 261 577 366 499 563 717 1105 1489 972 785 604 634 509 621 781 896 546 480 450 420 355 402 361 213
0 0 0 0 0 0 0 0 0 0 0 0 343 482 402 263 150 41 0 59 46 35 0 0 0 1 3 51 33 557 1411 1155 746 610 512 381 349 336 304 489 672 820 495 510 574 496 556 575 430
0 0 0 0 0 0 0 0 21 1 184 280 638 126 67 85 37 27 21 135 12 109 28 33 0 0 0 6 0 96 286 182 89 52 17 2 30 78 10 31 119 217 508 592 584 594 621 804 744
0 0 0 0 0 0 0 18 89 64 451 390 315 150 44 6 18 80 427 247 11 13 54 130 16 0 12 27 11 5 1 0 0 0 0 0 2 0 0 0 0 18 23 30 219 636 693 616 702
0 0 0 0 0 0 8 24 99 63 311 384 334 328 279 236 112 146 406 236 18 0 7 20 0 39 29 14 1 1 0 0 0 0 0 0 0 0 0 0 0 0 0 0 1 31 190 440 627
0 0 0 0 0 0 14 10 0 29 372 393 371 318 270 621 645 551 0 0 0 0 0 0 0 0 1 0 0 0 0 0 0 0 0 0 0 0 0 0 0 0 0 0 1 1 2 2 12
0 0 0 0 0 0 0 1 0 105 557 487 477 678 652 552 411 90 128 64 56 53 16 3 0 0 0 0 0 0 0 0 0 0 0 0 0 0 0 0 0 0 0 0 0 0 0 0 0